EW2769 Weather Reports


time (UTC)temp
F
wind
direction
speed
knots
gust
knots
rain 1hr
in
rain 24hr
in
rain mn
in
humidity
%
barometer
mb
20260506061601 51 359 2.6 7.8 0.04 0.17 0.17 100 1007.6
20260506061516 0 0.0 0.0 0.00 0.00 0.00 1005.4
20260506050114 0 0.0 0.0 0.00 0.00 0.00 1004.9
20260506044532 0 0.0 0.0 0.00 0.00 0.00 1004.5
20260506044523 53 302 4.3 9.6 0.02 0.13 0.13 100 1005.8
20260506043029 0 0.0 0.0 0.00 0.00 0.00 1004.3
20260506043018 54 326 3.5 8.7 0.02 0.13 0.13 100 1005.8
20260506041514 54 317 3.5 9.6 0.02 0.13 0.13 100 1005.9
20260506041512 0 0.0 0.0 0.00 0.00 0.00 1004.5
20260506040009 55 303 3.5 14.8 0.01 0.12 0.12 3 1005.7
20260506040005 0 0.0 0.0 0.00 0.00 0.00 1004.3
20260506034603 0 0.0 0.0 0.00 0.00 0.00 1004.2
20260506034507 57 336 8.7 18.2 0.00 0.11 0.11 22 1005.6
20260506034503 0 0.0 0.0 0.00 0.00 0.00 1004.2
20260506033055 0 0.0 0.0 0.00 0.00 0.00 1004.1
20260506033004 57 309 0.9 7.0 0.00 0.11 0.11 100 1005.5
20260506031600 57 261 0.0 2.6 0.00 0.11 0.11 100 1004.6
20260506031551 0 0.0 0.0 0.00 0.00 0.00 1003.8
20260506030048 0 0.0 0.0 0.00 0.00 0.00 1003.6
20260506030043 57 301 0.0 1.7 0.00 0.11 0.11 100 1004.6
20260506024547 57 205 0.0 4.3 0.00 0.11 0.11 100 1004.5
20260506024542 0 0.0 0.0 0.00 0.00 0.00 1003.1
20260506023040 0 0.0 0.0 0.00 0.00 0.00 1003.0
20260506023032 57 274 0.0 4.3 0.00 0.11 0.11 100 1004.5
20260506021529 57 256 0.0 3.5 0.00 0.11 0.11 100 1004.3
20260506021518 0 0.0 0.0 0.00 0.00 0.00 1002.7
20260506020024 57 244 0.0 3.5 0.00 0.11 0.11 100 1004.1
20260506020014 0 0.0 0.0 0.00 0.00 0.00 1002.6
20260506014518 57 291 0.0 4.3 0.00 0.11 0.11 7 1004.4
20260506014509 0 0.0 0.0 0.00 0.00 0.00 1002.7
20260506013014 0 0.0 0.0 0.00 0.00 0.00 1002.6
20260506011522 58 266 0.0 4.3 0.00 0.11 0.11 12 1004.2
20260506011505 0 0.0 0.0 0.00 0.00 0.00 1002.5
20260506010108 59 276 0.0 5.2 0.00 0.11 0.11 12 1003.9
20260506010057 0 0.0 0.0 0.00 0.00 0.00 1002.3
20260506004603 58 283 0.0 4.3 0.00 0.11 0.11 100 1004.0
20260506004558 0 0.0 0.0 0.00 0.00 0.00 1002.2
20260506003050 58 178 0.9 5.2 0.00 0.11 0.11 100 1003.8
20260506001546 58 236 0.9 5.2 0.00 0.11 0.11 100 1003.7
20260506001529 0 0.0 0.0 0.00 0.00 0.00 1002.2
20260506000109 57 247 0.0 1.7 0.00 0.11 0.11 100 1003.5
20260506000024 0 0.0 0.0 0.00 0.00 0.00 1002.1
20260505234544 58 223 0.0 2.6 0.00 0.11 0.11 100 1003.7
20260505234520 0 0.0 0.0 0.00 0.00 0.00 1001.7
20260505233034 58 7 0.0 0.0 0.01 0.11 0.11 100 1003.6
20260505233024 0 0.0 0.0 0.00 0.00 0.00 1001.7
20260505231528 58 283 0.0 7.0 0.01 0.11 0.11 100 1003.4
20260505231513 0 0.0 0.0 0.00 0.00 0.00 1001.8
20260505230046 58 256 1.7 5.2 0.02 0.11 0.11 100 1003.0
20260505230008 0 0.0 0.0 0.00 0.00 0.00 1002.1
20260505224507 57 276 5.2 13.0 0.04 0.11 0.11 100 1003.2
20260505223100 0 0.0 0.0 0.00 0.00 0.00 1001.7
20260505223004 57 224 0.0 7.0 0.05 0.10 0.10 100 1002.9
20260505221602 57 301 1.7 10.4 0.06 0.10 0.10 100 1002.9
20260505221544 0 0.0 0.0 0.00 0.00 0.00 1001.7
20260505220057 57 299 3.5 11.3 0.05 0.09 0.09 100 1003.2
20260505220048 0 0.0 0.0 0.00 0.00 0.00 1002.1
20260505214550 58 303 5.2 13.0 0.03 0.07 0.07 100 1003.0
20260505214518 0 0.0 0.0 0.00 0.00 0.00 1002.4
20260505213046 58 288 6.1 16.5 0.02 0.05 0.05 100 1002.6
20260505213007 0 0.0 0.0 0.00 0.00 0.00 1002.3
20260505211542 59 285 5.2 11.3 0.03 0.04 0.04 100 1001.9
20260505211504 0 0.0 0.0 0.00 0.00 0.00 1001.9
20260505210107 0 0.0 0.0 0.00 0.00 0.00 1001.3
20260505210038 59 341 5.2 10.4 0.04 0.04 0.04 100 1001.2
20260505204603 0 0.0 0.0 0.00 0.00 0.00 1001.2
20260505204516 59 315 6.1 14.8 0.04 0.04 0.04 100 1001.2
20260505203100 0 0.0 0.0 0.00 0.00 0.00 1001.8
20260505203014 60 336 10.4 18.2 0.03 0.03 0.03 100 1001.3
20260505201556 63 324 14.8 29.5 0.01 0.01 0.01 41 1000.5
20260505201549 0 0.0 0.0 0.00 0.00 0.00 1001.4
20260505200054 72 200 4.3 13.9 0.00 0.00 0.00 42 999.0
20260505200043 0 0.0 0.0 0.00 0.01 0.00 1000.8
20260505194611 73 186 3.5 11.3 0.00 0.00 0.00 43 998.6
20260505194543 68 281 7.8 14.8 0.00 0.01 0.00 55 1000.6
20260505193052 73 270 5.2 13.0 0.00 0.00 0.00 44 998.7
20260505193023 69 360 7.0 13.0 0.00 0.01 0.00 52 998.9
20260505191603 73 256 4.3 11.3 0.00 0.00 0.00 45 998.9
20260505191527 71 360 2.6 12.2 0.00 0.01 0.00 48 999.0
20260505190049 73 230 5.2 13.0 0.00 0.00 0.00 43 999.1
20260505190021 71 237 2.6 14.8 0.00 0.01 0.00 49 999.1
20260505184548 74 237 4.3 15.6 0.00 0.00 0.00 44 999.0
20260505184520 70 360 4.3 13.0 0.00 0.01 0.00 48 999.4
20260505183047 75 251 5.2 13.9 0.00 0.00 0.00 43 999.4
20260505183023 71 144 1.7 13.0 0.00 0.01 0.00 48 999.5
20260505181536 73 231 5.2 14.8 0.00 0.00 0.00 44 999.7
20260505181521 71 23 1.7 12.2 0.00 0.01 0.00 47 999.6
20260505180040 73 241 6.1 12.2 0.00 0.00 0.00 45 1000.0
20260505180014 70 267 4.3 15.6 0.00 0.03 0.00 49 999.9
20260505174529 73 287 3.5 16.5 0.00 0.00 0.00 46 1000.2
20260505174512 70 201 2.6 15.6 0.00 0.03 0.00 49 1000.4
20260505173055 70 226 8.7 24.3 0.00 0.03 0.00 47 1000.7
20260505173027 73 220 2.6 8.7 0.00 0.05 0.00 46 1000.5
20260505171550 70 244 7.8 16.5 0.00 0.03 0.00 48 1001.0
20260505171521 73 291 1.7 13.0 0.00 0.05 0.00 49 1000.9
20260505170031 68 311 4.3 12.2 0.00 0.07 0.00 53 1001.6
20260505170021 71 232 3.5 12.2 0.00 0.05 0.00 49 1001.3
20260505164527 69 260 2.6 17.4 0.00 0.07 0.00 53 1001.9
20260505164514 70 189 1.7 7.8 0.00 0.05 0.00 50 1001.9
20260505163015 68 186 0.9 10.4 0.00 0.09 0.00 52 1002.0
20260505163010 68 198 2.6 13.9 0.00 0.07 0.00 54 1002.3
20260505161554 68 261 4.3 15.6 0.00 0.09 0.00 52 1002.5
20260505161519 67 203 5.2 16.5 0.00 0.07 0.00 56 1002.4
20260505153058 63 254 0.0 8.7 0.00 0.17 0.00 61 1003.5
20260505153028 66 285 0.0 5.2 0.00 0.18 0.00 56 1003.2
20260505151555 62 252 3.5 11.3 0.00 0.17 0.00 62 1003.7
20260505151523 64 214 2.6 8.7 0.00 0.18 0.00 56 1003.6
20260505150105 62 277 4.3 14.8 0.00 0.28 0.00 62 1004.1
20260505124524 0 0.0 0.0 0.00 0.28 0.00 1004.6
20260505124518 50 16 0.0 0.9 0.00 0.18 0.18 100 1004.4
20260505123011 47 104 0.0 1.7 0.00 0.18 0.18 100 1004.6
20260505123000 0 0.0 0.0 0.00 0.28 0.00 1004.4
20260505121559 0 0.0 0.0 0.00 0.28 0.00 1004.3
20260505121522 45 22 0.0 0.0 0.00 0.18 0.18 100 1004.7
20260505120036 0 0.0 0.0 0.00 0.28 0.00 1004.5
20260505120004 43 335 0.0 0.0 0.00 0.18 0.18 100 1004.7
20260505114600 42 335 0.0 0.0 0.00 0.18 0.18 100 1005.0
20260505114530 0 0.0 0.0 0.00 0.28 0.00 1004.5
20260505113059 41 335 0.0 0.0 0.00 0.18 0.18 100 1005.1
20260505113012 0 0.0 0.0 0.00 0.28 0.00 1004.7
20260505111545 39 335 0.0 1.7 0.00 0.18 0.18 100 1005.3
20260505111505 0 0.0 0.0 0.00 0.28 0.00 1004.7
20260505101551 0 0.0 0.0 0.00 0.28 0.00 1004.9
20260505101523 35 39 0.0 0.0 0.00 0.18 0.18 100 1005.4
20260505100045 0 0.0 0.0 0.00 0.28 0.00 1004.9
20260505100031 34 39 0.0 0.0 0.00 0.18 0.18 100 1005.6
20260505094540 0 0.0 0.0 0.00 0.28 0.00 1004.9
20260505094514 34 169 0.0 0.0 0.00 0.18 0.18 100 1005.4
20260505093022 33 168 0.0 0.0 0.00 0.18 0.18 100 1005.4
20260505093020 0 0.0 0.0 0.00 0.28 0.00 1004.8
20260505091611 33 284 0.0 0.0 0.00 0.18 0.18 100 1005.6
20260505091517 0 0.0 0.0 0.00 0.28 0.00 1004.8
20260505090056 33 283 0.0 0.0 0.00 0.18 0.18 100 1005.5
20260505090028 0 0.0 0.0 0.00 0.28 0.00 1005.0
20260505084527 34 283 0.0 0.0 0.00 0.18 0.18 100 1005.7
20260505084507 0 0.0 0.0 0.00 0.28 0.00 1005.0
20260505083033 34 283 0.0 0.0 0.00 0.18 0.18 100 1005.8
20260505083004 0 0.0 0.0 0.00 0.28 0.00 1005.1
20260505081601 0 0.0 0.0 0.00 0.28 0.00 1005.2
20260505081518 34 283 0.0 0.0 0.00 0.18 0.18 100 1005.9
20260505080054 0 0.0 0.0 0.00 0.28 0.00 1005.1
20260505080014 35 283 0.0 0.0 0.00 0.18 0.18 100 1005.9
20260505074550 0 0.0 0.0 0.00 0.28 0.00 1005.2
20260505074511 35 283 0.0 0.0 0.00 0.18 0.18 100 1005.9
20260505073046 0 0.0 0.0 0.00 0.28 0.00 1005.2
20260505073005 35 284 0.0 0.0 0.00 0.18 0.18 100 1005.8
20260505071547 0 0.0 0.0 0.00 0.28 0.00 1005.2
20260505071501 35 283 0.0 0.0 0.00 0.18 0.18 100 1005.8